Location: ????????
(37.6846°N, 24.0673°E)
Time: 14:48:43
(UTC+00:00)

ARIANE 5 R/B - Pass Details

Date: 14 July 2020
Orbit: 749 x 795 km, 98.6° (Epoch: 03 August)

Event Time Altitude Azimuth Distance (km) Brightness Sun altitude
Rises 01:13:00 0° 12° (NNE) 3,237 6.8 -19.3°
Reaches altitude 10° 01:15:18 10° 13° (NNE) 2,313 5.9 -19.1°
Maximum altitude 01:20:25 89° 281° (W) 780 2.5 -18.4°
Enters shadow 01:23:10 29° 195° (SSW) 1,410 3.4 -18.0°
